OpenBCM V1.08-5-g2f4a (Linux)

Packet Radio Mailbox

IZ3LSV

[San Dona' di P. JN]

 Login: GUEST





  
CX2SA  > KEPS     15.08.25 02:26l 318 Lines 15086 Bytes #148 (0) @ AMSAT
BID : ORB25227.1
Read: GUEST IK2XYP
Subj: 2Line Orbital Elements 25227.AMSAT
Path: IZ3LSV<IK6IHL<IK7NXU<HB9ON<DK0WUE<PI8ZTM<OZ5BBS<CX2SA
Sent: 250815/0024Z @:CX2SA.SAL.URY.SOAM #:54778 [Salto] FBB7.00e $:ORB25227.1
From: CX2SA@CX2SA.SAL.URY.SOAM
To  : KEPS@AMSAT


QST de W1STR

AMSAT Orbital Elements for Amateur Satellites in TLE Format
>From Orbital Analysis Office
New England Sci-Tech STEM Education Center
Natick, MA August 15, 2025
To all radio amateurs


These element sets describe the orbits of various satellites
in use by the amateur radio community. For details see:
www.amsat.org/keplerian-elements-formats/

A daily update of element sets is available at:
www.amsat.org/tle/daily-bulletin.txt
or without bulletin text:
www.amsat.org/tle/dailytle.txt


AO-07
1 07530U 74089B   25226.49970274 -.00000047  00000-0 -40049-5 0  9997
2 07530 101.9961 231.4699 0012254 358.3986 154.6132 12.53690792322085
UO-11
1 14781U 84021B   25226.43707434  .00001368  00000-0  14907-3 0  9997
2 14781  97.7600 191.5282 0009266 114.0876 246.1312 14.89550975211444
AO-27
1 22825U 93061C   25226.58163207  .00000090  00000-0  51625-4 0  9999
2 22825  98.7321 288.4516 0007263 280.9247  79.1118 14.30817614663158
FO-29
1 24278U 96046B   25226.40722974 -.00000032  00000-0  24831-5 0  9999
2 24278  98.5657 111.6144 0350047 171.8849 188.8161 13.53251786431675
NOAA-15
1 25338U 98030A   25226.58147147  .00000170  00000-0  87336-4 0  9994
2 25338  98.5336 250.1180 0010675 159.9782 200.1819 14.27011490417567
GO-32
1 25397U 98043D   25226.51450099  .00000077  00000-0  53249-4 0  9991
2 25397  98.9762 207.0272 0001991  50.5936 309.5418 14.24329256407679
ISS
1 25544U 98067A   25225.82774622  .00008872  00000-0  16040-3 0  9993
2 25544  51.6356  21.3666 0001267 190.3224 169.7740 15.50502248524107
NO-44
1 26931U 01043C   25226.51956480  .00000133  00000-0  80837-4 0  9991
2 26931  67.0523 317.3486 0006680 276.2584  83.7757 14.31762146246545
SO-50
1 27607U 02058C   25226.49374797  .00001085  00000-0  15120-3 0  9990
2 27607  64.5543 357.0454 0063274 319.9145  39.7300 14.81783810218995
CO-55
1 27844U 03031E   25226.44653593  .00000296  00000-0  14780-3 0  9998
2 27844  98.6775 233.8744 0009644   4.1352 355.9905 14.24040151148010
CO-57
1 27848U 03031J   25226.49614827  .00000246  00000-0  12785-3 0  9992
2 27848  98.6806 233.8792 0009907  21.0678 339.0906 14.23368740147742
RS-22
1 27939U 03042A   25226.59275159  .00001147  00000-0  18885-3 0  9995
2 27939  98.3340  37.6651 0011888 155.3444 292.1698 14.72490309170418
CO-58
1 28895U 05043F   25226.35852840  .00001648  00000-0  27536-3 0  9991
2 28895  98.2584  11.5686 0015688  98.3209 261.9777 14.71208750 56618
CO-65
1 32785U 08021C   25226.57326911  .00004959  00000-0  35353-3 0  9996
2 32785  97.7911 198.2687 0009368   3.3934 356.7354 15.05010064939006
CO-66
1 32791U 08021J   25226.49631344  .00013348  00000-0  62024-3 0  9990
2 32791  97.7329 208.0868 0001626 331.4944  28.6201 15.20120501940500
RS-30
1 32953U 08025A   25226.55567980  .00000040  00000-0  21731-3 0  9990
2 32953  82.5046 186.1513 0017882 262.1108  97.7942 12.43167109781592
NOAA-19
1 33591U 09005A   25226.60605455  .00000125  00000-0  90552-4 0  9996
2 33591  98.9930 291.6684 0013974 173.0226 187.1143 14.13396089851173
SRMSAT
1 37841U 11058D   25226.00125964  .00000404  00000-0  75762-4 0  9991
2 37841  19.9716 118.6488 0011784  65.2187  49.5495 14.11452464714363
ZACUBE-1
1 39417U 13066B   25226.42914442  .00004730  00000-0  40663-3 0  9993
2 39417  97.7842 183.1317 0043473 189.0826 170.9614 14.97169862634769
Delfi-N3xt
1 39428U 13066N   25226.49738325  .00005440  00000-0  54588-3 0  9996
2 39428  97.8296 143.4309 0084730 142.3817 218.3368 14.89041118628881
GOMX-1
1 39430U 13066Q   25226.54533032  .00001594  00000-0  25279-3 0  9994
2 39430  97.6774  81.1481 0131642 341.9487  17.7067 14.67870928624908
LO-74
1 39440U 13066AA  25226.41665665  .00003845  00000-0  38744-3 0  9991
2 39440  97.8516 170.5467 0060426 324.1939  35.5234 14.90397863631245
AO-73
1 39444U 13066AE  25226.46928888  .00005400  00000-0  39755-3 0  9991
2 39444  97.7854 188.6855 0042198 161.0491 199.2316 15.03071871633481
DTUSAT-2
1 40030U 14033W   25226.48534037  .00007303  00000-0  46551-3 0  9996
2 40030  98.0603 201.5442 0008849 186.0906 174.0215 15.09023770606334
EO-80
1 40032U 14033Y   25226.36964302  .00006032  00000-0  38450-3 0  9994
2 40032  98.0487 200.9862 0010030 130.9892 229.2205 15.09095131606299
LILACSAT-2
1 40908U 15049K   25226.57970913  .00011442  00000-0  28588-3 0  9994
2 40908  97.5046 248.5747 0006874 283.8165  76.2316 15.40293892548385
IO-86
1 40931U 15052B   25151.18580175  .00001241  00000-0  78118-4 0  9996
2 40931   6.0006  24.0987 0012733 338.8432  21.1169 14.78805930523159
Horyu-4
1 41340U 16012D   25226.60200225  .00025686  00000-0  62847-3 0  9993
2 41340  30.9967  47.1077 0007592  27.6930 332.4119 15.39523546522964
Lapan A3
1 41603U 16040E   25226.55427761  .00003379  00000-0  11767-3 0  9996
2 41603  97.1398 228.5955 0012040  42.3740 317.8429 15.30267051507877
CAS-2T
1 41847U 16066G   25226.45962188  .00000724  00000-0  11254-3 0  9992
2 41847  98.4167 300.3396 0345087 339.3736  19.3803 14.43651461460522
CAS-4B
1 42759U 17034B   25226.53629222  .00111812  00000-0  77024-3 0  9997
2 42759  43.0036 286.1973 0021402  31.4258 328.7885 15.73210889452953
CAS-4A
1 42761U 17034D   25226.50175556  .00124381  00000-0  77803-3 0  9993
2 42761  43.0072 282.6390 0022251  36.4336 323.8043 15.75355923452970
TechnoSat
1 42829U 17042E   25226.40308648  .00003618  00000-0  27875-3 0  9999
2 42829  97.3982  31.9780 0018172  60.1298 300.1730 15.02105412440607
AO-91
1 43017U 17073E   25226.53842428  .00006692  00000-0  33898-3 0  9993
2 43017  97.5144  95.6509 0168293 302.0244  56.4726 15.05758205419131
S-Net D
1 43186U 18014G   25226.27742773  .00005488  00000-0  31974-3 0  9994
2 43186  97.5543 128.5128 0009096  11.0709 349.0720 15.12379989412305
S-Net B
1 43187U 18014H   25226.28368912  .00005381  00000-0  31375-3 0  9992
2 43187  97.5548 128.4942 0009620   5.5151 354.6184 15.12359498412305
S-Net A
1 43188U 18014J   25226.27758552  .00005520  00000-0  32148-3 0  9999
2 43188  97.5555 128.6468 0009521   6.6288 353.5067 15.12385807412303
S-Net C
1 43189U 18014K   25226.28625345  .00005402  00000-0  31489-3 0  9990
2 43189  97.5570 128.6807 0010802 357.3115   2.8056 15.12355829410858
Ten-Koh
1 43677U 18084G   25226.47245112  .00002246  00000-0  18174-3 0  9999
2 43677  98.0844  41.3372 0008282  55.1836 305.0165 15.00842057370125
PO-101
1 43678U 18084H   25226.56391548  .00002209  00000-0  18957-3 0  9993
2 43678  98.1062  45.2294 0008861  73.4508 286.7686 14.98582523370260
QO-100
1 43700U 18090A   25226.54310781  .00000144  00000-0  00000-0 0  9997
2 43700   0.0157 102.8551 0001099  57.9731  23.6862  1.00271510 24608
MinXSS-2
1 43758U 18099A   25226.14019004  .00016373  00000-0  60927-3 0  9997
2 43758  97.4966 292.4528 0009869 283.9844  76.0297 15.27529780366970
AO-95
1 43770U 18099N   25226.38087025  .00009496  00000-0  46593-3 0  9996
2 43770  97.4859 283.7658 0009694 351.6037   8.5033 15.18273584366533
SNUSat 2
1 43782U 18099AA  25226.58834604  .00006456  00000-0  34453-3 0  9999
2 43782  97.4543 280.1762 0010156 285.9146  74.0967 15.15442724366498
SnugLite
1 43784U 18099AC  25226.59426361  .00008591  00000-0  41826-3 0  9993
2 43784  97.4355 279.8844 0001741 287.2665  72.8378 15.18610249366650
ITASat 1
1 43786U 18099AE  25226.40500520  .00005823  00000-0  32675-3 0  9992
2 43786  97.4513 279.3076 0013291 345.4260  14.6587 15.13658211366417
EAGLET 1
1 43790U 18099AJ  25226.38475966  .00003481  00000-0  22062-3 0  9996
2 43790  97.4707 279.0185 0010889 330.2708  29.7901 15.09534066365999
ESEO
1 43792U 18099AL  25226.12418750  .00001540  00000-0  11919-3 0  9991
2 43792  97.4446 271.1393 0010296 303.5593  56.4649 15.02830986365665
JO-97
1 43803U 18099AX  25226.15580182  .00010974  00000-0  48133-3 0  9995
2 43803  97.4613 284.6852 0005749 272.3811  87.6767 15.22131712366746
Suomi 100
1 43804U 18099AY  25226.60923147  .00008200  00000-0  38915-3 0  9994
2 43804  97.4672 284.2344 0010434 277.1213  82.8835 15.19471921366726
ISAT
1 43879U 18111D   25226.50837076  .00022318  00000-0  71825-3 0  9998
2 43879  97.5890 142.4434 0006563 342.3266  17.7746 15.32220780363788
UWE-4
1 43880U 18111E   25226.47618089  .00015721  00000-0  58320-3 0  9992
2 43880  97.5837 140.4034 0010510 350.9744   9.1304 15.27638190363684
Sparrow
1 43881U 18111F   25226.49965940  .00023958  00000-0  73801-3 0  9998
2 43881  97.6047 145.5791 0006787  29.3359 330.8263 15.33604048363887
Prox-1
1 44339U 19036A   25226.46769968  .00011407  00000-0  14002-2 0  9996
2 44339  23.9976 348.6238 0007930  98.6753 261.4643 14.81139380327794
Taurus 1
1 44530U 19059C   25226.58330611  .00006475  00000-0  11760-2 0  9993
2 44530  98.6139   9.1631 0009545 185.0290 175.0818 14.66520206313618
Duchifat 3
1 44854U 19089C   25226.49306924  .00061630  00000-0  97751-3 0  9994
2 44854  36.9407 294.4604 0005209 137.2647 222.8517 15.52292429313242
TO-108
1 44881U 19093C   25226.56452639  .00000855  00000-0  10450-3 0  9995
2 44881  97.7891 300.8278 0014160  20.9470 339.2322 14.85717550305870
FloripaSat 1
1 44885U 19093G   25226.50982368  .00005165  00000-0  43000-3 0  9996
2 44885  97.8133 314.2676 0009206 346.9617  13.1366 14.99074310306629
RS-44
1 44909U 19096E   25226.38258380  .00000028  00000-0  61366-4 0  9991
2 44909  82.5232 183.5627 0218081 141.4696 220.2203 12.79742483263103
UPMSat 2
1 46276U 20061E   25226.19846007  .00123810  00000-0  68794-3 0  9998
2 46276  97.2370 303.2147 0001618 205.3358 154.7830 15.79149435275782
SALSAT
1 46495U 20068K   25226.50892676  .00007281  00000-0  30734-3 0  9992
2 46495  97.8661 207.6389 0009236 297.3575  62.6720 15.23570336268565
